{"data":{"norad_id":66262,"intl_designator":"2025-245AE","name":"STARLINK-35487","alt_names":[],"object_type":"PAYLOAD","status":"ACTIVE","operator":null,"country":"US","launch_date":"2025-10-29","launch_site_code":"AFETR","launch_vehicle":null,"mission":null,"orbit_class":"UNKNOWN","rcs_meters":null,"size_class":null,"mass_kg":null,"dimensions":null,"purposes":["comms"],"wikipedia_slug":null,"has_3d_model":false,"image_url":null,"decayed_at":null,"tle_current":{"epoch":"2026-05-24T19:43:00.712992Z","epoch_age_seconds":101170,"freshness":"FRESH","line1":"1 66262U 25245AE  26144.82153603  .00008688  00000+0  30509-3 0  9994","line2":"2 66262  53.1587 290.1868 0001061  90.6428 269.4694 15.30202955 32865","mean_motion":15.30202955,"eccentricity":0.0001061,"inclination_deg":53.1587,"raan_deg":290.1868,"arg_perigee_deg":90.6428,"mean_anomaly_deg":269.4694,"bstar":0.00030509,"rev_number":3286,"period_min":94.105163978069,"perigee_km":474.47910661773,"apogee_km":475.9333860546,"semimajor_km":6853.3432463362,"source":"CELESTRAK","updated_at":"2026-05-25T13:38:21.139789Z"}}}